Regional Weather Roundup
Issued by NWS

Home | Current Version | Previous Version | Text Only | Print | Product List | Glossary On
Versions: 1 2 3 4 5 6 7 8 9 10 11 12 13 14 15 16 17 18 19 20 21 22 23 24 25 26 27 28 29 30 31 32 33 34 35 36 37 38 39 40 41 42 43 44 45 46 47 48 49 50
000
ASCA42 TJSJ 021311
RWRPR
PUERTO RICO/U.S. VIRGIN ISLANDS HOURLY WEATHER ROUNDUP
NATIONAL WEATHER SERVICE SAN JUAN PR
900 AM AST THU OCT 02 2014

PRZ001-004-021400-
PUERTO RICO

CITY           SKY/WX    TMP DP  RH WIND       PRES   REMARKS
SAN JUAN LMM   MOSUNNY   88  75  66 SE5       30.05R HX  97
PONCE          MOSUNNY   88  75  66 SE9       30.00R HX  97
MAYAGUEZ       MOSUNNY   81  72  74 E5        30.05R
AGUADILLA      SUNNY     84  73  70 E8        30.05S HX  91
CEIBA          MOSUNNY   88  75  66 SE13      30.08R HX  97
$$

PRZ006-007-021400-
U.S. VIRGIN ISLANDS

CITY           SKY/WX    TMP DP  RH WIND       PRES   REMARKS
CHARLOTTE AMA  MOSUNNY   84  75  74 SE14      30.05  HX  92
CHRISTIANSTED  MOSUNNY   88  75  66 E16       30.06  HX  97
$$

HOURLY WEATHER ROUNDUP FOR THE NEWS MEDIA

CITY           SKY/WX    TMP DP  RH WIND       PRES   REMARKS
MIAMI          MOSUNNY   83  76  79 VRB3      30.04R HX  91
ORLANDO        SUNNY     80  73  79 N3        30.04R
NEW YORK       PTSUNNY   63  55  75 N10       30.14R
NEWARK         CLOUDY    62  56  80 N9        30.14R
CHICAGO        CLOUDY    64  60  87 SE8       29.87F
HARTFORD       CLOUDY    58  56  93 NE13G24   30.10R
BOSTON         LGT RAIN  55  54  96 N16       30.16R
DALLAS         PTCLDY    78  71  79 S10       29.82R
PHILADELPHIA   PTSUNNY   65  56  72 E8        30.15R


USA.gov is the U.S. government's official web portal to all federal, state and local government web resources and services.